Flag for Switzerland Weather past 2 weeks in Schwyz, Schwyz, Switzerland

Now
58 °F

Overcast.


Feels Like: 59 °F
Forecast: 51 / 71 °F
Wind: 3 mph from Northwest

Location: Altdorf

Current Time: Apr 25, 2015 at 9:00:41 PM

Latest Report: Apr 25, 2015 at 8:00 PM


Visibility: 11 mi

Pressure: 29.85 "Hg

Humidity: 73%

Dew point: 49 °F

Location of SchwyzLocation

Historic Weather in Schwyz — Graph

°F

Schwyz temperature yesterday

Maximum temperature yesterday: 67 °F (at 4:00 PM)
Minimum temperature yesterday: 40 °F (at 6:00 AM)
Average temperature yesterday: 54 °F

Past Weeks' High & Low Weather Summary

 TemperatureHumidityPressure
High70 °F (Apr 15, 5:00 PM)95% (Apr 19, 4:00 AM)30.50 "Hg (Apr 19, 4:00 AM)
Low34 °F (Apr 19, 6:00 AM)27% (Apr 10, 7:00 PM)29.85 "Hg (Apr 25, 3:00 PM)
Average53 °F65%30.17 "Hg
* Reported Apr 10 7:00 PM — Apr 25 7:00 PM, Schwyz, Weather by CustomWeather, © 2015

Note: Actual official high and low records may vary slightly from our data, if they occured in-between our weather recording intervals... More about our weather records

Advertising

Schwyz weather history for previous 24 hours

 ConditionsComfort  
Time TempWeatherWind HumidityBarometerVisibility
7:00 PM
Sat, Apr 25
59 °FCool.3 mph70%29.86 "HgN/A
6:00 PM61 °FCool.1 mph68%29.87 "HgN/A
5:00 PM62 °FOvercast.6 mph63%29.86 "Hg12 mi
4:00 PM63 °FMild.13 mph57%29.85 "HgN/A
3:00 PM64 °FMild.8 mph54%29.85 "HgN/A
2:00 PM65 °FOvercast.6 mph49%29.85 "Hg14 mi
1:00 PM63 °FMild.2 mph55%29.87 "HgN/A
12:00 PM62 °FMild.3 mph56%29.88 "HgN/A
11:00 AM60 °FOvercast.6 mph61%29.90 "Hg15 mi
10:00 AM59 °FRefreshingly cool.2 mph59%29.89 "HgN/A
9:00 AM57 °FCool.2 mph62%29.90 "HgN/A
8:00 AM55 °FOvercast.5 mph63%29.91 "Hg14 mi
7:00 AM54 °FCool.13 mph64%29.90 "HgN/A
6:00 AM58 °FRefreshingly cool.3 mph51%29.86 "HgN/A
5:00 AM49 °FPassing clouds.2 mph69%29.90 "Hg16 mi
4:00 AM48 °FCool.1 mph72%29.92 "HgN/A
3:00 AM50 °FCool.1 mph68%29.92 "HgN/A
2:00 AM43 °FPassing clouds.2 mph85%29.95 "Hg16 mi
1:00 AM49 °FCool.2 mph70%29.94 "HgN/A
12:00 AM48 °FCool.1 mph72%29.95 "HgN/A
11:00 PM
Fri, Apr 24
53 °FPassing clouds.3 mph60%29.94 "Hg17 mi
10:00 PM54 °FCool.3 mph58%29.93 "HgN/A
9:00 PM57 °FRefreshingly cool.3 mph53%29.91 "HgN/A
Weather by CustomWeather, © 2015

See weather overviewHow to use our weather pages